date,time,SUV Intensity [MED/Hr],UV Index,Daily total [MED],Since Last [MED]
17/05/2022,00:08:10,0.001,0.0,0.0,0.0
17/05/2022,00:09:09,0.000,0.0,0.0,0.0
17/05/2022,00:10:08,0.000,0.0,0.0,0.0
17/05/2022,00:11:09,0.000,0.0,0.0,0.0
17/05/2022,00:12:10,0.000,0.0,0.0,0.0
17/05/2022,00:14:19,0.001,0.0,0.0,0.0
17/05/2022,00:16:11,0.000,0.0,0.0,0.0
17/05/2022,00:18:10,0.001,0.0,0.0,0.0
17/05/2022,00:19:09,0.001,0.0,0.0,0.0
17/05/2022,00:21:10,0.000,0.0,0.0,0.0
17/05/2022,00:22:08,0.000,0.0,0.0,0.0
17/05/2022,00:23:18,0.000,0.0,0.0,0.0
17/05/2022,00:25:10,0.000,0.0,0.0,0.0
17/05/2022,00:26:17,-0.000,0.0,0.0,0.0
17/05/2022,00:28:10,0.001,0.0,0.0,0.0
17/05/2022,00:30:18,-0.001,0.0,0.0,0.0
17/05/2022,00:32:10,0.000,0.0,0.0,0.0
17/05/2022,00:33:08,-0.000,0.0,0.0,0.0
17/05/2022,00:34:09,0.000,0.0,0.0,0.0
17/05/2022,00:35:10,0.001,0.0,0.0,0.0
17/05/2022,00:37:10,0.000,0.0,0.0,0.0
17/05/2022,00:38:08,0.000,0.0,0.0,0.0
17/05/2022,00:39:17,0.001,0.0,0.0,0.0
17/05/2022,00:41:10,-0.000,0.0,0.0,0.0
17/05/2022,00:42:08,0.000,0.0,0.0,0.0
17/05/2022,00:43:09,-0.001,0.0,0.0,0.0
17/05/2022,00:44:09,-0.000,0.0,0.0,0.0
17/05/2022,00:46:10,-0.001,0.0,0.0,0.0
17/05/2022,00:47:09,0.001,0.0,0.0,0.0
17/05/2022,00:48:10,0.000,0.0,0.0,0.0
17/05/2022,00:49:10,-0.001,0.0,0.0,0.0
17/05/2022,00:50:08,-0.001,0.0,0.0,0.0
17/05/2022,00:51:18,0.000,0.0,0.0,0.0
17/05/2022,00:53:10,0.000,0.0,0.0,0.0
17/05/2022,00:54:09,0.001,0.0,0.0,0.0
17/05/2022,00:55:09,0.000,0.0,0.0,0.0
17/05/2022,00:56:09,0.000,0.0,0.0,0.0
17/05/2022,00:57:10,0.000,0.0,0.0,0.0
17/05/2022,00:58:08,0.000,0.0,0.0,0.0
17/05/2022,00:59:18,0.000,0.0,0.0,0.0
17/05/2022,01:01:10,-0.001,0.0,0.0,0.0
17/05/2022,01:02:09,0.000,0.0,0.0,0.0
17/05/2022,01:03:10,0.000,0.0,0.0,0.0
17/05/2022,01:04:10,0.000,0.0,0.0,0.0
17/05/2022,01:05:08,0.000,0.0,0.0,0.0
17/05/2022,01:06:10,0.000,0.0,0.0,0.0
17/05/2022,01:07:08,-0.001,0.0,0.0,0.0
17/05/2022,01:09:10,0.000,0.0,0.0,0.0
17/05/2022,01:10:17,0.000,0.0,0.0,0.0
17/05/2022,01:12:10,0.000,0.0,0.0,0.0
17/05/2022,01:13:08,0.000,0.0,0.0,0.0
17/05/2022,01:14:10,-0.001,0.0,0.0,0.0
17/05/2022,01:15:08,-0.001,0.0,0.0,0.0
17/05/2022,01:16:09,0.000,0.0,0.0,0.0
17/05/2022,01:17:10,0.001,0.0,0.0,0.0
17/05/2022,01:18:16,0.000,0.0,0.0,0.0
17/05/2022,01:20:10,0.000,0.0,0.0,0.0
17/05/2022,01:21:10,0.001,0.0,0.0,0.0
17/05/2022,01:22:09,0.000,0.0,0.0,0.0
17/05/2022,01:24:19,0.000,0.0,0.0,0.0
17/05/2022,01:26:11,0.001,0.0,0.0,0.0
17/05/2022,01:28:10,0.001,0.0,0.0,0.0
17/05/2022,01:29:09,0.000,0.0,0.0,0.0
17/05/2022,01:30:10,0.000,0.0,0.0,0.0
17/05/2022,01:32:12,0.000,0.0,0.0,0.0
17/05/2022,01:34:10,-0.001,0.0,0.0,0.0
17/05/2022,01:35:08,-0.001,0.0,0.0,0.0
17/05/2022,01:36:10,0.000,0.0,0.0,0.0
17/05/2022,01:37:09,0.000,0.0,0.0,0.0
17/05/2022,01:38:09,-0.000,0.0,0.0,0.0
17/05/2022,01:40:11,0.000,0.0,0.0,0.0
17/05/2022,01:41:09,0.001,0.0,0.0,0.0
17/05/2022,01:42:10,-0.000,0.0,0.0,0.0
17/05/2022,01:43:08,0.001,0.0,0.0,0.0
17/05/2022,01:44:10,-0.001,0.0,0.0,0.0
17/05/2022,01:45:08,0.001,0.0,0.0,0.0
17/05/2022,01:46:10,-0.000,0.0,0.0,0.0
17/05/2022,01:48:11,0.000,0.0,0.0,0.0
17/05/2022,01:49:09,0.000,0.0,0.0,0.0
17/05/2022,01:50:10,0.000,0.0,0.0,0.0
17/05/2022,01:51:08,0.000,0.0,0.0,0.0
17/05/2022,01:52:09,0.001,0.0,0.0,0.0
17/05/2022,01:53:10,0.001,0.0,0.0,0.0
17/05/2022,01:54:08,-0.001,0.0,0.0,0.0
17/05/2022,01:56:10,0.000,0.0,0.0,0.0
17/05/2022,01:57:08,0.001,0.0,0.0,0.0
17/05/2022,01:58:10,0.000,0.0,0.0,0.0
17/05/2022,01:59:08,0.000,0.0,0.0,0.0
17/05/2022,02:00:09,-0.000,0.0,0.0,0.0
17/05/2022,02:01:16,0.000,0.0,0.0,0.0
17/05/2022,02:03:10,0.000,0.0,0.0,0.0
17/05/2022,02:04:16,-0.001,0.0,0.0,0.0
17/05/2022,02:06:10,0.000,0.0,0.0,0.0
17/05/2022,02:07:17,0.002,0.0,0.0,0.0
17/05/2022,02:09:11,0.000,0.0,0.0,0.0
17/05/2022,02:11:10,-0.000,0.0,0.0,0.0
17/05/2022,02:12:09,0.001,0.0,0.0,0.0
17/05/2022,02:13:10,-0.000,0.0,0.0,0.0
17/05/2022,02:14:08,-0.000,0.0,0.0,0.0
17/05/2022,02:15:10,0.001,0.0,0.0,0.0
17/05/2022,02:16:09,-0.001,0.0,0.0,0.0
17/05/2022,02:17:18,0.001,0.0,0.0,0.0
17/05/2022,02:19:11,0.001,0.0,0.0,0.0
17/05/2022,02:21:10,0.001,0.0,0.0,0.0
17/05/2022,02:22:21,0.000,0.0,0.0,0.0
17/05/2022,02:24:10,0.001,0.0,0.0,0.0
17/05/2022,02:25:08,0.001,0.0,0.0,0.0
17/05/2022,02:27:11,0.000,0.0,0.0,0.0
17/05/2022,02:28:09,0.001,0.0,0.0,0.0
17/05/2022,02:29:09,0.001,0.0,0.0,0.0
17/05/2022,02:30:09,0.000,0.0,0.0,0.0
17/05/2022,02:31:10,0.001,0.0,0.0,0.0
17/05/2022,02:32:18,0.000,0.0,0.0,0.0
17/05/2022,02:34:19,0.000,0.0,0.0,0.0
17/05/2022,02:36:10,0.000,0.0,0.0,0.0
17/05/2022,02:37:08,0.001,0.0,0.0,0.0
17/05/2022,02:38:10,-0.001,0.0,0.0,0.0
17/05/2022,02:39:11,0.001,0.0,0.0,0.0
17/05/2022,02:41:10,0.001,0.0,0.0,0.0
17/05/2022,02:43:11,0.001,0.0,0.0,0.0
17/05/2022,02:44:09,0.001,0.0,0.0,0.0
17/05/2022,02:45:09,0.001,0.0,0.0,0.0
17/05/2022,02:46:10,0.000,0.0,0.0,0.0
17/05/2022,02:47:09,0.000,0.0,0.0,0.0
17/05/2022,02:48:09,0.000,0.0,0.0,0.0
17/05/2022,02:50:10,0.000,0.0,0.0,0.0
17/05/2022,02:51:09,-0.001,0.0,0.0,0.0
17/05/2022,02:52:10,0.000,0.0,0.0,0.0
17/05/2022,02:53:08,-0.000,0.0,0.0,0.0
17/05/2022,02:54:10,0.001,0.0,0.0,0.0
17/05/2022,02:55:09,0.000,0.0,0.0,0.0
17/05/2022,02:56:10,-0.000,0.0,0.0,0.0
17/05/2022,02:57:08,-0.001,0.0,0.0,0.0
17/05/2022,02:59:10,0.000,0.0,0.0,0.0
17/05/2022,03:00:09,0.000,0.0,0.0,0.0
17/05/2022,03:01:09,0.001,0.0,0.0,0.0
17/05/2022,03:02:08,0.001,0.0,0.0,0.0
17/05/2022,03:03:10,0.000,0.0,0.0,0.0
17/05/2022,03:05:26,0.000,0.0,0.0,0.0
17/05/2022,03:07:12,0.001,0.0,0.0,0.0
17/05/2022,03:09:11,0.000,0.0,0.0,0.0
17/05/2022,03:10:10,0.000,0.0,0.0,0.0
17/05/2022,03:11:10,0.000,0.0,0.0,0.0
17/05/2022,03:12:08,0.000,0.0,0.0,0.0
17/05/2022,03:13:10,0.000,0.0,0.0,0.0
17/05/2022,03:15:11,0.000,0.0,0.0,0.0
17/05/2022,03:17:11,0.001,0.0,0.0,0.0
17/05/2022,03:18:09,0.000,0.0,0.0,0.0
17/05/2022,03:19:10,0.000,0.0,0.0,0.0
17/05/2022,03:21:11,0.001,0.0,0.0,0.0
17/05/2022,03:22:10,0.000,0.0,0.0,0.0
17/05/2022,03:23:10,-0.000,0.0,0.0,0.0
17/05/2022,03:24:21,0.000,0.0,0.0,0.0
17/05/2022,03:26:10,0.000,0.0,0.0,0.0
17/05/2022,03:27:17,-0.001,0.0,0.0,0.0
17/05/2022,03:29:11,0.001,0.0,0.0,0.0
17/05/2022,03:31:11,-0.001,0.0,0.0,0.0
17/05/2022,03:32:09,0.000,0.0,0.0,0.0
17/05/2022,03:33:09,0.000,0.0,0.0,0.0
17/05/2022,03:35:11,0.001,0.0,0.0,0.0
17/05/2022,03:37:10,-0.000,0.0,0.0,0.0
17/05/2022,03:38:10,0.001,0.0,0.0,0.0
17/05/2022,03:39:10,0.001,0.0,0.0,0.0
17/05/2022,03:40:17,0.000,0.0,0.0,0.0
17/05/2022,03:42:10,-0.001,0.0,0.0,0.0
17/05/2022,03:43:18,0.000,0.0,0.0,0.0
17/05/2022,03:45:10,0.001,0.0,0.0,0.0
17/05/2022,03:47:10,0.002,0.0,0.0,0.0
17/05/2022,03:48:09,-0.000,0.0,0.0,0.0
17/05/2022,03:49:10,-0.000,0.0,0.0,0.0
17/05/2022,03:50:08,0.000,0.0,0.0,0.0
17/05/2022,03:51:09,-0.000,0.0,0.0,0.0
17/05/2022,03:53:11,0.002,0.0,0.0,0.0
17/05/2022,03:54:09,0.000,0.0,0.0,0.0
17/05/2022,03:55:10,0.001,0.0,0.0,0.0
17/05/2022,03:56:09,0.001,0.0,0.0,0.0
17/05/2022,03:57:11,0.001,0.0,0.0,0.0
17/05/2022,03:59:10,0.000,0.0,0.0,0.0
17/05/2022,04:00:09,0.001,0.0,0.0,0.0
17/05/2022,04:01:09,0.001,0.0,0.0,0.0
17/05/2022,04:03:11,0.000,0.0,0.0,0.0
17/05/2022,04:04:09,0.001,0.0,0.0,0.0
17/05/2022,04:05:18,0.002,0.0,0.0,0.0
17/05/2022,04:07:10,0.002,0.0,0.0,0.0
17/05/2022,04:09:10,0.002,0.0,0.0,0.0
17/05/2022,04:10:09,0.002,0.0,0.0,0.0
17/05/2022,04:11:10,0.002,0.0,0.0,0.0
17/05/2022,04:12:09,0.001,0.0,0.0,0.0
17/05/2022,04:13:10,0.002,0.0,0.0,0.0
17/05/2022,04:14:09,0.002,0.0,0.0,0.0
17/05/2022,04:15:09,0.002,0.0,0.0,0.0
17/05/2022,04:16:09,0.002,0.0,0.0,0.0
17/05/2022,04:17:09,0.002,0.0,0.0,0.0
17/05/2022,04:19:11,0.002,0.0,0.0,0.0
17/05/2022,04:20:09,0.002,0.0,0.0,0.0
17/05/2022,04:21:18,0.003,0.0,0.0,0.0
17/05/2022,04:23:10,0.003,0.0,0.0,0.0
17/05/2022,04:25:11,0.004,0.0,0.0,0.0
17/05/2022,04:26:09,0.004,0.0,0.0,0.0
17/05/2022,04:27:10,0.004,0.0,0.0,0.0
17/05/2022,04:28:08,0.004,0.0,0.0,0.0
17/05/2022,04:29:10,0.005,0.0,0.0,0.0
17/05/2022,04:30:09,0.004,0.0,0.0,0.0
17/05/2022,04:31:20,0.005,0.0,0.0,0.0
17/05/2022,04:33:10,0.005,0.0,0.0,0.0
17/05/2022,04:35:22,0.006,0.0,0.0,0.0
17/05/2022,04:37:10,0.006,0.0,0.0,0.0
17/05/2022,04:38:09,0.007,0.0,0.0,0.0
17/05/2022,04:39:10,0.007,0.0,0.0,0.0
17/05/2022,04:41:11,0.007,0.0,0.001,0.001
17/05/2022,04:43:11,0.008,0.0,0.001,0.0
17/05/2022,04:44:09,0.009,0.0,0.001,0.0
17/05/2022,04:45:10,0.009,0.0,0.001,0.0
17/05/2022,04:46:25,0.008,0.0,0.001,0.0
17/05/2022,04:48:10,0.010,0.0,0.002,0.001
17/05/2022,04:50:10,0.011,0.0,0.002,0.0
17/05/2022,04:51:09,0.012,0.0,0.002,0.0
17/05/2022,04:52:09,0.011,0.0,0.002,0.0
17/05/2022,04:53:10,0.012,0.0,0.003,0.001
17/05/2022,04:54:09,0.013,0.0,0.003,0.0
17/05/2022,04:55:09,0.013,0.0,0.003,0.0
17/05/2022,04:57:10,0.014,0.0,0.004,0.001
17/05/2022,04:58:09,0.015,0.0,0.004,0.0
17/05/2022,04:59:09,0.015,0.0,0.004,0.0
17/05/2022,05:00:18,0.016,0.0,0.004,0.0
17/05/2022,05:02:10,0.017,0.0,0.005,0.001
17/05/2022,05:03:09,0.017,0.0,0.005,0.0
17/05/2022,05:04:10,0.018,0.0,0.005,0.0
17/05/2022,05:06:10,0.019,0.0,0.006,0.001
17/05/2022,05:07:17,0.019,0.0,0.006,0.0
17/05/2022,05:09:10,0.022,0.0,0.007,0.001
17/05/2022,05:10:09,0.023,0.0,0.007,0.0
17/05/2022,05:11:10,0.023,0.0,0.008,0.001
17/05/2022,05:13:11,0.026,0.0,0.009,0.001
17/05/2022,05:14:10,0.025,0.0,0.009,0.0
17/05/2022,05:15:09,0.026,0.0,0.009,0.0
17/05/2022,05:16:10,0.027,0.0,0.01,0.001
17/05/2022,05:17:09,0.028,0.0,0.01,0.0
17/05/2022,05:18:10,0.028,0.0,0.011,0.001
17/05/2022,05:19:10,0.030,0.0,0.011,0.0
17/05/2022,05:20:09,0.030,0.0,0.012,0.001
17/05/2022,05:22:11,0.032,0.0,0.013,0.001
17/05/2022,05:23:18,0.033,0.0,0.013,0.0
17/05/2022,05:25:10,0.035,0.0,0.015,0.002
17/05/2022,05:26:09,0.036,0.0,0.015,0.0
17/05/2022,05:27:10,0.037,0.0,0.016,0.001
17/05/2022,05:29:11,0.039,0.0,0.017,0.001
17/05/2022,05:30:09,0.041,0.0,0.018,0.001
17/05/2022,05:31:10,0.042,0.0,0.018,0.0
17/05/2022,05:32:09,0.044,0.0,0.019,0.001
17/05/2022,05:33:09,0.044,0.0,0.02,0.001
17/05/2022,05:34:10,0.045,0.0,0.021,0.001
17/05/2022,05:36:11,0.047,0.0,0.022,0.001
17/05/2022,05:38:11,0.050,0.0,0.024,0.002
17/05/2022,05:39:10,0.052,0.0,0.025,0.001
17/05/2022,05:40:09,0.053,0.0,0.025,0.0
17/05/2022,05:41:10,0.053,0.0,0.026,0.001
17/05/2022,05:42:10,0.055,0.0,0.027,0.001
17/05/2022,05:43:09,0.057,0.0,0.028,0.001
17/05/2022,05:44:09,0.058,0.0,0.029,0.001
17/05/2022,05:45:10,0.060,0.0,0.03,0.001
17/05/2022,05:46:10,0.061,0.0,0.031,0.001
17/05/2022,05:47:09,0.062,0.0,0.032,0.001
17/05/2022,05:48:18,0.065,0.0,0.033,0.001
17/05/2022,05:50:10,0.068,0.0,0.035,0.002
17/05/2022,05:51:09,0.069,0.0,0.036,0.001
17/05/2022,05:52:10,0.071,0.0,0.038,0.002
17/05/2022,05:54:11,0.074,0.0,0.04,0.002
17/05/2022,05:55:09,0.075,0.0,0.041,0.001
17/05/2022,05:56:09,0.078,0.0,0.043,0.002
17/05/2022,05:57:10,0.080,0.0,0.044,0.001
17/05/2022,05:58:09,0.082,0.0,0.045,0.001
17/05/2022,06:00:12,0.085,0.0,0.048,0.003
17/05/2022,06:02:11,0.089,0.0,0.051,0.003
17/05/2022,06:03:10,0.091,0.0,0.052,0.001
17/05/2022,06:04:18,0.094,0.0,0.054,0.002
17/05/2022,06:06:10,0.100,0.0,0.057,0.003
17/05/2022,06:07:10,0.102,0.0,0.059,0.002
17/05/2022,06:08:10,0.103,0.0,0.061,0.002
17/05/2022,06:10:10,0.108,0.0,0.064,0.003
17/05/2022,06:11:09,0.111,0.0,0.066,0.002
17/05/2022,06:12:10,0.113,0.0,0.068,0.002
17/05/2022,06:13:09,0.116,0.0,0.07,0.002
17/05/2022,06:14:19,0.119,0.0,0.072,0.002
17/05/2022,06:16:10,0.124,0.0,0.076,0.004
17/05/2022,06:17:18,0.127,0.0,0.078,0.002
17/05/2022,06:19:11,0.132,0.0,0.082,0.004
17/05/2022,06:20:18,0.133,0.0,0.085,0.003
17/05/2022,06:22:11,0.140,0.0,0.089,0.004
17/05/2022,06:23:10,0.143,0.0,0.091,0.002
17/05/2022,06:24:09,0.146,0.0,0.094,0.003
17/05/2022,06:26:10,0.152,0.0,0.099,0.005
17/05/2022,06:27:09,0.155,0.0,0.101,0.002
17/05/2022,06:28:10,0.159,0.0,0.104,0.003
17/05/2022,06:29:09,0.161,0.0,0.106,0.002
17/05/2022,06:30:18,0.164,0.0,0.11,0.004
17/05/2022,06:32:10,0.171,0.0,0.115,0.005
17/05/2022,06:33:09,0.173,0.0,0.118,0.003
17/05/2022,06:34:10,0.177,0.0,0.121,0.003
17/05/2022,06:35:10,0.180,0.0,0.124,0.003
17/05/2022,06:37:11,0.188,0.0,0.13,0.006
17/05/2022,06:39:11,0.194,0.0,0.136,0.006
17/05/2022,06:41:19,0.202,0.0,0.143,0.007
17/05/2022,06:43:11,0.209,0.0,0.15,0.007
17/05/2022,06:44:09,0.214,0.0,0.153,0.003
17/05/2022,06:45:10,0.216,0.0,0.157,0.004
17/05/2022,06:46:09,0.221,1.0,0.16,0.003
17/05/2022,06:47:09,0.225,1.0,0.164,0.004
17/05/2022,06:48:10,0.229,1.0,0.168,0.004
17/05/2022,06:49:08,0.233,1.0,0.171,0.003
17/05/2022,06:50:10,0.237,1.0,0.175,0.004
17/05/2022,06:51:10,0.241,1.0,0.179,0.004
17/05/2022,06:52:09,0.244,1.0,0.183,0.004
17/05/2022,06:53:18,0.250,1.0,0.188,0.005
17/05/2022,06:55:10,0.259,1.0,0.196,0.008
17/05/2022,06:57:19,0.268,1.0,0.206,0.01
17/05/2022,06:59:10,0.277,1.0,0.214,0.008
17/05/2022,07:00:09,0.281,1.0,0.219,0.005
17/05/2022,07:01:10,0.286,1.0,0.223,0.004
17/05/2022,07:03:11,0.295,1.0,0.233,0.01
17/05/2022,07:04:09,0.301,1.0,0.238,0.005
17/05/2022,07:05:10,0.305,1.0,0.243,0.005
17/05/2022,07:06:10,0.309,1.0,0.248,0.005
17/05/2022,07:07:09,0.314,1.0,0.253,0.005
17/05/2022,07:08:10,0.318,1.0,0.259,0.006
17/05/2022,07:09:18,0.325,1.0,0.265,0.006
17/05/2022,07:11:10,0.333,1.0,0.275,0.01
17/05/2022,07:13:11,0.343,1.0,0.286,0.011
17/05/2022,07:14:10,0.351,1.0,0.292,0.006
17/05/2022,07:15:10,0.354,1.0,0.298,0.006
17/05/2022,07:16:09,0.359,1.0,0.304,0.006
17/05/2022,07:17:10,0.364,1.0,0.31,0.006
17/05/2022,07:19:11,0.375,1.0,0.322,0.012
17/05/2022,07:20:10,0.381,1.0,0.328,0.006
17/05/2022,07:21:11,0.385,1.0,0.335,0.007
17/05/2022,07:22:09,0.390,1.0,0.341,0.006
17/05/2022,07:23:10,0.398,1.0,0.348,0.007
17/05/2022,07:24:09,0.402,1.0,0.355,0.007
17/05/2022,07:25:10,0.409,1.0,0.361,0.006
17/05/2022,07:26:09,0.413,1.0,0.368,0.007
17/05/2022,07:27:10,0.418,1.0,0.375,0.007
17/05/2022,07:29:11,0.432,1.0,0.389,0.014
17/05/2022,07:30:09,0.438,1.0,0.397,0.008
17/05/2022,07:31:10,0.443,1.0,0.404,0.007
17/05/2022,07:32:10,0.450,1.0,0.411,0.007
17/05/2022,07:34:11,0.459,1.0,0.426,0.015
17/05/2022,07:35:10,0.465,1.0,0.434,0.008
17/05/2022,07:36:10,0.471,1.0,0.442,0.008
17/05/2022,07:38:19,0.487,1.0,0.459,0.017
17/05/2022,07:40:11,0.500,1.0,0.474,0.015
17/05/2022,07:41:09,0.505,1.0,0.483,0.009
17/05/2022,07:42:10,0.511,1.0,0.491,0.008
17/05/2022,07:43:09,0.518,1.0,0.499,0.008
17/05/2022,07:45:10,0.532,1.0,0.517,0.018
17/05/2022,07:46:09,0.539,1.0,0.526,0.009
17/05/2022,07:47:18,0.548,1.0,0.536,0.01
17/05/2022,07:49:11,0.560,1.0,0.554,0.018
17/05/2022,07:50:09,0.567,1.0,0.563,0.009
17/05/2022,07:51:10,0.574,1.0,0.573,0.01
17/05/2022,07:52:10,0.579,1.0,0.582,0.009
17/05/2022,07:53:11,0.586,1.0,0.592,0.01
17/05/2022,07:54:09,0.593,1.0,0.602,0.01
17/05/2022,07:55:11,0.599,1.0,0.612,0.01
17/05/2022,07:56:09,0.607,1.0,0.622,0.01
17/05/2022,07:57:19,0.615,1.0,0.633,0.011
17/05/2022,07:59:11,0.629,1.0,0.653,0.02
17/05/2022,08:01:20,0.646,1.0,0.676,0.023
17/05/2022,08:03:11,0.657,2.0,0.696,0.02
17/05/2022,08:05:11,0.672,2.0,0.718,0.022
17/05/2022,08:06:09,0.682,2.0,0.729,0.011
17/05/2022,08:07:10,0.688,2.0,0.74,0.011
17/05/2022,08:08:09,0.697,2.0,0.752,0.012
17/05/2022,08:09:10,0.704,2.0,0.764,0.012
17/05/2022,08:10:09,0.713,2.0,0.775,0.011
17/05/2022,08:11:10,0.721,2.0,0.787,0.012
17/05/2022,08:13:11,0.737,2.0,0.812,0.025
17/05/2022,08:15:10,0.752,2.0,0.836,0.024
17/05/2022,08:16:09,0.756,2.0,0.849,0.013
17/05/2022,08:17:10,0.766,2.0,0.862,0.013
17/05/2022,08:18:09,0.774,2.0,0.874,0.012
17/05/2022,08:19:10,0.781,2.0,0.888,0.014
17/05/2022,08:21:11,0.800,2.0,0.914,0.026
17/05/2022,08:22:10,0.805,2.0,0.927,0.013
17/05/2022,08:23:10,0.817,2.0,0.941,0.014
17/05/2022,08:24:10,0.821,2.0,0.954,0.013
17/05/2022,08:25:17,0.832,2.0,0.97,0.016
17/05/2022,08:27:11,0.848,2.0,0.996,0.026
17/05/2022,08:28:18,0.858,2.0,1.012,0.016
17/05/2022,08:30:11,0.869,2.0,1.039,0.027
17/05/2022,08:32:11,0.886,2.0,1.068,0.029
17/05/2022,08:33:10,0.896,2.0,1.083,0.015
17/05/2022,08:34:10,0.901,2.0,1.098,0.015
17/05/2022,08:35:09,0.910,2.0,1.113,0.015
17/05/2022,08:36:10,0.914,2.0,1.129,0.016
17/05/2022,08:37:09,0.926,2.0,1.144,0.015
17/05/2022,08:39:11,0.941,2.0,1.176,0.032
17/05/2022,08:40:10,0.954,2.0,1.191,0.015
17/05/2022,08:41:11,0.959,2.0,1.207,0.016
17/05/2022,08:42:10,0.968,2.0,1.223,0.016
17/05/2022,08:43:11,0.977,2.0,1.239,0.016
17/05/2022,08:44:09,0.990,2.0,1.256,0.017
17/05/2022,08:46:11,1.006,2.0,1.289,0.033
17/05/2022,08:48:11,1.028,2.0,1.323,0.034
17/05/2022,08:49:10,1.037,2.0,1.34,0.017
17/05/2022,08:50:10,1.053,2.0,1.357,0.017
17/05/2022,08:52:11,1.073,2.0,1.393,0.036
17/05/2022,08:53:18,1.084,2.0,1.413,0.02
17/05/2022,08:55:10,1.096,3.0,1.447,0.034
17/05/2022,08:56:09,1.106,3.0,1.465,0.018
17/05/2022,08:57:10,1.119,3.0,1.484,0.019
17/05/2022,08:58:09,1.130,3.0,1.502,0.018
17/05/2022,08:59:11,1.144,3.0,1.522,0.02
17/05/2022,09:00:09,1.159,3.0,1.541,0.019
17/05/2022,09:01:11,1.152,3.0,1.56,0.019
17/05/2022,09:02:09,1.155,3.0,1.579,0.019
17/05/2022,09:04:28,1.182,3.0,1.624,0.045
17/05/2022,09:06:11,1.193,3.0,1.658,0.034
17/05/2022,09:08:14,1.212,3.0,1.699,0.041
17/05/2022,09:10:11,1.219,3.0,1.738,0.039
17/05/2022,09:11:10,1.234,3.0,1.758,0.02
17/05/2022,09:12:10,1.233,3.0,1.779,0.021
17/05/2022,09:13:10,1.234,3.0,1.799,0.02
17/05/2022,09:14:09,1.262,3.0,1.82,0.021
17/05/2022,09:15:10,1.272,3.0,1.841,0.021
17/05/2022,09:16:11,1.276,3.0,1.863,0.022
17/05/2022,09:17:09,1.282,3.0,1.884,0.021
17/05/2022,09:19:19,1.294,3.0,1.931,0.047
17/05/2022,09:21:11,1.313,3.0,1.97,0.039
17/05/2022,09:22:10,1.320,3.0,1.992,0.022
17/05/2022,09:24:11,1.331,3.0,2.037,0.045
17/05/2022,09:25:10,1.336,3.0,2.059,0.022
17/05/2022,09:26:11,1.355,3.0,2.081,0.022
17/05/2022,09:27:09,1.355,3.0,2.104,0.023
17/05/2022,09:28:10,1.373,3.0,2.126,0.022
17/05/2022,09:29:09,1.377,3.0,2.149,0.023
17/05/2022,09:30:10,1.394,3.0,2.172,0.023
17/05/2022,09:31:09,1.393,3.0,2.195,0.023
17/05/2022,09:32:10,1.405,3.0,2.218,0.023
17/05/2022,09:34:11,1.410,3.0,2.265,0.047
17/05/2022,09:35:10,1.443,3.0,2.289,0.024
17/05/2022,09:36:10,1.424,3.0,2.312,0.023
17/05/2022,09:37:10,1.443,3.0,2.336,0.024
17/05/2022,09:39:10,1.465,3.0,2.384,0.048
17/05/2022,09:40:10,1.479,3.0,2.409,0.025
17/05/2022,09:41:11,1.490,3.0,2.433,0.024
17/05/2022,09:42:10,1.463,3.0,2.458,0.025
17/05/2022,09:43:10,1.500,3.0,2.482,0.024
17/05/2022,09:44:09,1.512,3.0,2.506,0.024
17/05/2022,09:45:11,1.495,3.0,2.532,0.026
17/05/2022,09:46:09,1.534,4.0,2.558,0.026
17/05/2022,09:47:10,1.547,4.0,2.584,0.026
17/05/2022,09:48:10,1.554,4.0,2.609,0.025
17/05/2022,09:50:10,1.569,4.0,2.661,0.052
17/05/2022,09:51:16,1.573,4.0,2.69,0.029
17/05/2022,09:53:11,1.589,4.0,2.741,0.051
17/05/2022,09:55:19,1.594,4.0,2.798,0.057
17/05/2022,09:57:11,1.621,4.0,2.848,0.05
17/05/2022,09:58:10,1.622,4.0,2.874,0.026
17/05/2022,09:58:57,1.630,4.0,2.896,0.022
17/05/2022,10:00:11,1.638,4.0,2.928,0.032
17/05/2022,10:01:10,1.654,4.0,2.956,0.028
17/05/2022,10:02:10,1.662,4.0,2.983,0.027
17/05/2022,10:03:09,1.675,4.0,3.011,0.028
17/05/2022,10:04:11,1.685,4.0,3.039,0.028
17/05/2022,10:06:11,1.719,4.0,3.097,0.058
17/05/2022,10:07:10,1.724,4.0,3.124,0.027
17/05/2022,10:08:11,1.730,4.0,3.153,0.029
17/05/2022,10:09:10,1.735,4.0,3.182,0.029
17/05/2022,10:11:11,1.731,4.0,3.24,0.058
17/05/2022,10:12:10,1.732,4.0,3.269,0.029
17/05/2022,10:13:19,1.748,4.0,3.301,0.032
17/05/2022,10:15:11,1.743,4.0,3.356,0.055
17/05/2022,10:16:10,1.746,4.0,3.385,0.029
17/05/2022,10:17:10,1.764,4.0,3.414,0.029
17/05/2022,10:18:09,1.778,4.0,3.444,0.03
17/05/2022,10:19:10,1.788,4.0,3.473,0.029
17/05/2022,10:20:09,1.800,4.0,3.502,0.029
17/05/2022,10:22:11,1.829,4.0,3.565,0.063
17/05/2022,10:23:10,1.840,4.0,3.595,0.03
17/05/2022,10:24:10,1.861,4.0,3.625,0.03
17/05/2022,10:25:09,1.865,4.0,3.657,0.032
17/05/2022,10:26:10,1.909,4.0,3.688,0.031
17/05/2022,10:27:11,1.896,4.0,3.719,0.031
17/05/2022,10:28:18,1.913,4.0,3.754,0.035
17/05/2022,10:30:11,1.908,4.0,3.813,0.059
17/05/2022,10:31:10,1.914,4.0,3.845,0.032
17/05/2022,10:32:11,1.927,4.0,3.877,0.032
17/05/2022,10:33:10,1.930,4.0,3.909,0.032
17/05/2022,10:34:19,1.935,4.0,3.946,0.037
17/05/2022,10:36:19,1.969,5.0,4.012,0.066
17/05/2022,10:38:19,1.477,3.0,4.075,0.063
17/05/2022,10:40:11,1.684,4.0,4.127,0.052
17/05/2022,10:42:11,1.911,4.0,4.191,0.064
17/05/2022,10:43:10,2.036,5.0,4.225,0.034
17/05/2022,10:44:10,2.089,5.0,4.259,0.034
17/05/2022,10:45:11,1.738,4.0,4.291,0.032
17/05/2022,10:46:09,1.735,4.0,4.319,0.028
17/05/2022,10:47:11,1.553,4.0,4.348,0.029
17/05/2022,10:48:10,1.632,4.0,4.374,0.026
17/05/2022,10:49:19,1.931,4.0,4.406,0.032
17/05/2022,10:51:11,1.999,5.0,4.46,0.054
17/05/2022,10:52:18,1.679,4.0,4.498,0.038
17/05/2022,10:54:11,1.651,4.0,4.556,0.058
17/05/2022,10:55:10,2.095,5.0,4.59,0.034
17/05/2022,10:56:10,2.159,5.0,4.626,0.036
17/05/2022,10:58:11,2.138,5.0,4.696,0.07
17/05/2022,10:59:10,2.169,5.0,4.731,0.035
17/05/2022,11:00:10,2.170,5.0,4.767,0.036
17/05/2022,11:01:09,2.173,5.0,4.803,0.036
17/05/2022,11:02:10,2.181,5.0,4.84,0.037
17/05/2022,11:03:09,2.180,5.0,4.876,0.036
17/05/2022,11:04:10,2.186,5.0,4.912,0.036
17/05/2022,11:05:10,2.181,5.0,4.949,0.037
17/05/2022,11:06:10,2.178,5.0,4.985,0.036
17/05/2022,11:07:09,2.145,5.0,5.021,0.036
17/05/2022,11:08:10,1.927,4.0,5.055,0.034
17/05/2022,11:10:11,2.116,5.0,5.122,0.067
17/05/2022,11:11:10,2.140,5.0,5.157,0.035
17/05/2022,11:12:10,2.159,5.0,5.193,0.036
17/05/2022,11:14:19,1.906,4.0,5.261,0.068
17/05/2022,11:16:11,2.174,5.0,5.324,0.063
17/05/2022,11:17:10,2.175,5.0,5.361,0.037
17/05/2022,11:18:11,2.174,5.0,5.397,0.036
17/05/2022,11:19:10,2.193,5.0,5.433,0.036
17/05/2022,11:20:11,2.207,5.0,5.47,0.037
17/05/2022,11:21:09,2.218,5.0,5.507,0.037
17/05/2022,11:22:10,2.224,5.0,5.544,0.037
17/05/2022,11:23:09,2.212,5.0,5.581,0.037
17/05/2022,11:24:12,2.199,5.0,5.619,0.038
17/05/2022,11:26:11,2.238,5.0,5.693,0.074
17/05/2022,11:27:10,2.234,5.0,5.729,0.036
17/05/2022,11:28:18,2.225,5.0,5.771,0.042
17/05/2022,11:30:11,2.215,5.0,5.84,0.069
17/05/2022,11:31:18,2.221,5.0,5.882,0.042
17/05/2022,11:33:11,2.163,5.0,5.95,0.068
17/05/2022,11:34:19,2.174,5.0,5.99,0.04
17/05/2022,11:36:11,2.012,5.0,6.058,0.068
17/05/2022,11:37:11,1.742,4.0,6.089,0.031
17/05/2022,11:38:11,1.614,4.0,6.116,0.027
17/05/2022,11:39:10,1.511,3.0,6.143,0.027
17/05/2022,11:41:11,1.632,4.0,6.196,0.053
17/05/2022,11:43:11,1.832,4.0,6.253,0.057
17/05/2022,11:44:10,1.732,4.0,6.283,0.03
17/05/2022,11:46:11,2.255,5.0,6.346,0.063
17/05/2022,11:47:10,2.138,5.0,6.382,0.036
17/05/2022,11:48:11,2.016,5.0,6.416,0.034
17/05/2022,11:49:18,2.313,5.0,6.458,0.042
17/05/2022,11:51:11,2.321,5.0,6.531,0.073
17/05/2022,11:52:11,2.327,5.0,6.569,0.038
17/05/2022,11:53:10,2.322,5.0,6.608,0.039
17/05/2022,11:54:10,2.332,5.0,6.647,0.039
17/05/2022,11:55:10,2.271,5.0,6.685,0.038
17/05/2022,11:56:11,2.101,5.0,6.724,0.039
17/05/2022,11:57:10,2.315,5.0,6.758,0.034
17/05/2022,11:59:11,1.936,4.0,6.832,0.074
17/05/2022,12:00:10,2.103,5.0,6.867,0.035
17/05/2022,12:01:11,1.829,4.0,6.899,0.032
17/05/2022,12:02:10,1.888,4.0,6.93,0.031
17/05/2022,12:03:11,1.816,4.0,6.961,0.031
17/05/2022,12:04:10,1.888,4.0,6.99,0.029
17/05/2022,12:05:11,1.968,5.0,7.021,0.031
17/05/2022,12:06:01,1.678,4.0,7.047,0.026
17/05/2022,12:07:11,2.108,5.0,7.084,0.037
17/05/2022,12:09:11,2.310,5.0,7.159,0.075
17/05/2022,12:10:10,2.356,5.0,7.199,0.04
17/05/2022,12:11:10,2.202,5.0,7.237,0.038
17/05/2022,12:12:09,1.920,4.0,7.27,0.033
17/05/2022,12:13:10,2.231,5.0,7.305,0.035
17/05/2022,12:15:11,2.279,5.0,7.378,0.073
17/05/2022,12:17:11,2.283,5.0,7.455,0.077
17/05/2022,12:18:10,2.258,5.0,7.491,0.036
17/05/2022,12:19:19,2.153,5.0,7.534,0.043
17/05/2022,12:21:11,2.234,5.0,7.599,0.065
17/05/2022,12:22:10,2.223,5.0,7.636,0.037
17/05/2022,12:23:11,2.212,5.0,7.674,0.038
17/05/2022,12:24:09,2.221,5.0,7.71,0.036
17/05/2022,12:25:10,2.213,5.0,7.747,0.037
17/05/2022,12:26:11,2.214,5.0,7.781,0.034
17/05/2022,12:27:10,1.933,4.0,7.817,0.036
17/05/2022,12:28:10,1.624,4.0,7.852,0.035
17/05/2022,12:29:09,1.758,4.0,7.881,0.029
17/05/2022,12:31:12,1.481,3.0,7.938,0.057
17/05/2022,12:33:12,1.118,3.0,7.981,0.043
17/05/2022,12:34:10,1.115,3.0,7.999,0.018
17/05/2022,12:35:10,1.150,3.0,8.017,0.018
17/05/2022,12:36:10,1.185,3.0,8.037,0.02
17/05/2022,12:37:11,1.201,3.0,8.057,0.02
17/05/2022,12:38:09,1.214,3.0,8.076,0.019
17/05/2022,12:39:10,1.329,3.0,8.098,0.022
17/05/2022,12:40:17,1.401,3.0,8.124,0.026
17/05/2022,12:42:11,2.158,5.0,8.187,0.063